Location: ??????
(55.7522°N, 37.6156°E)
Time: 18:28:20
(UTC+00:00)

Cosmos 1703 Rocket - Pass Details

Date: 14 June 2025
Orbit: 599 x 626 km, 82.5° (Epoch: 12 July)

Event Time Altitude Azimuth Distance (km) Brightness Sun altitude
Exits shadow 21:22:23 16° 185° (S) 1,621 5.0 -10.9°
Maximum altitude 21:25:52 79° 100° (E) 622 3.5 -10.9°
Drops below altitude 10° 21:30:12 10° 14° (NNE) 1,958 7.5 -10.9°
Sets 21:32:25 0° 13° (NNE) 2,865 8.8 -10.9°
